Terminal Aerodrome Forecast
Issued by NWS

Home | Current Version | Previous Version | Text Only | Print | Product List | Glossary On
Versions: 1 2 3 4 5 6 7 8 9 10 11 12 13 14 15 16 17
164
FTUS43 KDLH 251741
TAFBRD
TAF
KBRD 251741Z 2518/2618 17008KT P6SM OVC015
     FM252300 17009KT P6SM VCTS BKN025CB OVC080
     FM260200 18004KT P6SM VCTS BKN035CB BKN120
     FM260600 23004KT P6SM BKN060
     FM260900 29004KT 4SM BR BKN060
     FM261300 34005KT P6SM SCT120=

USA.gov is the U.S. government's official web portal to all federal, state and local government web resources and services.